Terug naar catalogus

FREGAT R/B

LostHEO
NORAD 37939·ROCKET BODY·🇷🇺 Russia

Gelanceerd Nov 28, 2011 vanaf Plesetsk Cosmodrome

Loading…

Volgende Passages (komende 24 uur)

TLE

VerouderdSource: Space-Track

Epoch: Aug 5, 2026, 20:14 UTC

1 37939U 11071B   26217.84353956 -.00000059  00000-0  00000+0 0  9996
2 37939  65.6274 320.7205 0072673  83.2326 245.8437  2.09024524112129

Volg FREGAT R/B in realtime met AllMySat

Download on the App Store